No particular awareness of the weather is required.    There are no Weather-warnings




My webcam more information My webcam


Meteosat more information Meteosat


Radar de pluja more information rain snow radar


Visita la nostra xarxa de llocs de meteo:

Template documentation
and downloads

And another site



Select another period ( hide this area )

Unitats Periode Custom range Directly to
Mètric Imperial Tant
Diari Setmana Mensual Anual
use both date-selectors for a custom range
previous Dia
With this date

WeatherUnderground graphs for this period ( click here )


Warning: Division by zero in /var/www/vhosts/5/103384/webspace/httpdocs/santgenismeteo.org/weather28/wu/WU-History4.php on line 835
Diari Resum Dijous 18 Juliol 2019
Temps Temp. ( °C ) Dew pt. ( °C ) Vent ( km/h ) des Rafegues ( km/h ) Pression baro ( hPa ) Humid.( % ) Rainrate ( cm ) Solar ( W/m2 )
Maxima31,9 17,9 16,6 Est ( 631/938 ) 17,2 1014,4 76 0,50 0
Media24,3 14,4 3,7 Est #133/255 -57,1 1012,6 54 1,00 0 #0/255
Minima-17,8 -17,8 -   -1607,4 1010,4 0 -  
Diari Tabular details for Dijous 18 Juliol 2019
Temps Temp. ( °C ) Dew pt. ( °C ) Vent ( km/h ) des Rafegues ( km/h ) Pression baro ( hPa ) Humid.( % ) Rainrate ( cm ) Solar ( W/m2 )
00:00 20,2 15,4 9,0 Est 9,0 1013,4 74 - -
00:05 20,2 15,2 8,7 Est 8,7 1013,4 73 - -
00:10 20,3 15,1 8,7 Est 8,7 1013,4 72 - -
00:15 20,5 15,1 11,6 NNW 17,2 1013,4 71 - -
00:20 20,6 15,2 3,2 West 4,3 1013,4 71 - -
00:25 20,6 14,9 9,7 West 9,7 1012,4 70 - -
00:30 20,7 14,8 13,0 Est 14,8 1012,4 69 - -
00:35 20,7 14,8 6,1 Est 13,0 1012,4 69 - -
00:40 20,8 14,9 5,0 Est 8,7 1013,4 69 - -
00:45 20,9 14,8 4,3 West 9,0 1013,4 68 - -
00:50 20,9 14,5   calma 9,3 1013,4 67 - -
00:55 21,0 14,6 4,7 Est 10,5 1013,4 67 - -
01:00 21,0 14,4 1,8 Est 7,6 1013,4 66 - -
01:05 21,0 14,4 7,9 Est 10,8 1013,4 66 - -
01:10 21,1 14,3 6,1 SSE 9,3 1013,4 65 - -
01:15 21,1 14,3 3,5 Est 9,0 1013,4 65 - -
01:20 21,2 14,4 10,1 WNW 10,1 1013,4 65 - -
01:25 21,2 14,1 5,0 West 8,7 1013,4 64 - -
01:30 21,3 14,2 3,2 Est 12,2 1013,4 64 - -
01:35 21,3 14,2 15,8 Est 15,8 1013,4 64 - -
01:40 21,2 14,1 1,4 Est 6,9 1013,4 64 - -
01:45 21,2 14,1 5,0 Est 8,7 1013,4 64 - -
01:50 21,2 14,1 12,2 Est 12,2 1013,4 64 - -
01:55 21,1 14,3 5,8 WNW 10,5 1012,4 65 - -
02:00 21,0 14,2 6,9 West 6,9 1012,4 65 - -
02:05 21,0 14,2 3,5 NW 5,8 1012,4 65 - -
02:10 21,0 14,4 4,7 Est 7,6 1012,4 66 - -
02:15 21,1 14,3 6,1 Est 12,6 1012,4 65 - -
02:20 21,1 14,3 3,2 Est 5,5 1012,4 65 - -
02:25 21,2 14,4   calma 5,0 1012,4 65 - -
02:30 21,3 14,5 2,6 West 10,5 1012,4 65 - -
02:35 21,4 14,5 5,5 Est 5,5 1012,4 65 - -
02:40 21,5 14,6 2,1 Est 8,7 1011,4 65 - -
02:45 21,5 14,6   calma 5,5 1011,4 65 - -
02:50 21,6 14,7 3,2 WNW 3,2 1011,4 65 - -
02:55 21,6 14,7   calma 4,0 1011,4 65 - -
03:00 21,6 14,7 1,8 Est 6,1 1011,4 65 - -
03:05 21,6 14,7 3,2 NE 5,0 1011,4 65 - -
03:10 21,5 14,6   calma 5,0 1011,4 65 - -
03:15 21,5 14,6 2,1 West 3,5 1011,4 65 - -
03:20 21,5 14,9   calma 4,3 1011,4 66 - -
03:25 21,4 14,5 7,9 NW 10,5 1011,4 65 - -
03:30 21,4 14,5 5,0 Est 9,0 1011,4 65 - -
03:35 21,4 14,5   calma 5,5 1011,4 65 - -
03:40 21,4 14,8   calma 2,1 1010,4 66 - -
03:45 21,5 14,4 2,1 West 4,3 1010,4 64 - -
03:50 21,6 14,5   calma 4,0 1010,4 64 - -
03:55 21,5 14,6 5,8 Est 6,1 1011,4 65 - -
04:00 21,5 14,4 2,1 Est 6,1 1011,4 64 - -
04:05 21,5 14,4 4,0 Est 4,7 1011,4 64 - -
04:10 21,5 14,4   calma 5,8 1011,4 64 - -
04:15 21,5 14,4 6,9 Est 6,9 1011,4 64 - -
04:20 21,5 14,4   calma 1,8 1011,4 64 - -
04:25 21,6 14,7 3,2 NNW 7,6 1011,4 65 - -
04:30 21,7 14,3   calma 6,1 1011,4 63 - -
04:35 21,6 14,3 5,5 ESE 6,4 1011,4 63 - -
04:40 21,6 14,0 6,1 Est 6,1 1011,4 62 - -
04:45 21,6 14,0 1,4 West 5,0 1011,4 62 - -
04:50 21,7 14,3 6,1 Est 7,9 1011,4 63 - -
04:55 21,8 14,4 4,7 Est 4,7 1011,4 63 - -
05:00 21,8 14,4 4,0 Est 11,9 1011,4 63 - -
05:05 21,7 14,6 4,0 Est 5,8 1011,4 64 - -
05:10 21,8 14,7   calma 5,8 1011,4 64 - -
05:15 21,8 14,9 4,0 Est 4,0 1011,4 65 - -
05:20 21,8 14,9 2,1 Est 7,2 1011,4 65 - -
05:25 21,8 14,9 6,9 West 6,9 1011,4 65 - -
05:30 21,7 15,1 1,8 West 9,0 1011,4 66 - -
05:35 21,7 15,1 2,6 ENE 4,0 1011,4 66 - -
05:40 21,9 15,7 2,6 West 8,7 1011,4 68 - -
05:45 22,1 15,7 4,7 WNW 9,0 1011,4 67 - -
05:50 22,3 15,9 4,7 West 14,0 1011,4 67 - -
05:55 22,4 16,0 3,5 WNW 10,1 1011,4 67 - -
06:00 22,5 16,3 9,3 Est 9,3 1011,4 68 - -
06:05 22,5 16,3 11,9 Est 11,9 1011,4 68 - -
06:10 22,5 16,3 3,2 West 9,0 1011,4 68 - -
06:15 -17,8 -17,8 5,5 Est 13,7 1011,4 0 - -
06:20 -17,8 -17,8 1,8 Est 10,1 1011,4 0 - -
06:25 -17,8 -17,8 9,0 Est 14,0 1011,4 0 0,50 -
06:30 -17,8 -17,8 4,3 Est -1607,4 1011,4 0 0,50 -
06:35 -17,8 -17,8 4,3 Est -1607,4 1011,4 0 0,50 -
06:40 22,3 17,9 4,3 Est 4,3 1011,4 76 0,50 -
06:45 22,0 16,3 4,3 Est -1607,4 1011,4 70 0,50 -
06:50 21,6 15,4 7,6 North 7,6 1011,4 68 0,50 -
06:55 21,2 14,8 9,7 WNW 9,7 1011,4 67 0,50 -
07:00 20,9 14,8 7,9 Est 16,9 1011,4 68 0,50 -
07:05 20,9 15,0 3,2 Est 15,4 1011,4 69 0,50 -
07:10 20,9 15,4 9,3 ENE 16,6 1011,4 71 0,50 -
07:15 21,0 15,5 6,9 WSW 12,6 1011,4 71 0,50 -
07:20 21,0 15,5 6,4 Est 8,7 1011,4 71 0,50 -
07:25 21,0 15,5 16,6 Est 16,6 1011,4 71 - -
07:30 21,1 15,6 7,9 Est 10,8 1011,4 71 - -
07:35 21,2 15,5 9,3 West 10,1 1011,4 70 - -
07:40 21,3 15,2 1,8 Est 7,6 1012,4 68 - -
07:45 21,4 14,8 4,3 NNW 9,3 1012,4 66 - -
07:50 21,4 14,3 6,1 Est 11,9 1012,4 64 - -
07:55 21,5 14,4 6,1 WNW 8,7 1012,4 64 - -
08:00 21,6 14,3 6,4 Est 11,6 1012,4 63 - -
08:05 21,6 14,3 4,7 WNW 10,5 1012,4 63 - -
08:10 21,7 14,3 4,3 Est 10,5 1012,4 63 - -
08:15 21,7 14,3 10,8 Est 12,6 1012,4 63 - -
08:20 21,7 14,1 3,2 NNE 9,3 1012,4 62 - -
08:25 21,7 14,1 2,1 ENE 12,6 1012,4 62 - -
08:30 21,7 14,1 6,4 Est 12,6 1012,4 62 - -
08:35 21,8 14,2 12,6 WNW 15,8 1012,4 62 - -
08:40 21,9 14,3 4,7 NNE 12,2 1012,4 62 - -
08:45 21,9 14,0   calma 4,7 1012,4 61 - -
08:50 22,0 14,1 3,5 North 3,5 1012,4 61 - -
08:55 22,2 14,3 4,0 Est -1607,4 1012,4 61 - -
09:00 22,4 14,3 4,7 NW 4,7 1012,4 60 - -
09:05 22,5 14,3 9,0 WNW 9,0 1012,4 60 - -
09:10 22,5 14,3 6,1 NW 9,0 1012,4 60 - -
09:15 22,6 14,4 8,7 Est 11,1 1012,4 60 - -
09:20 22,7 14,5 8,7 NE 12,6 1012,4 60 - -
09:25 22,8 14,6 7,9 Est 16,3 1013,4 60 - -
09:30 22,9 14,7 5,5 West 9,3 1013,4 60 - -
09:35 23,1 14,9 5,8 West 6,1 1013,4 60 - -
09:40 23,1 14,9 4,0 Est 4,0 1013,4 60 - -
09:45 23,2 15,0 1,8 West 10,5 1013,4 60 - -
09:50 23,2 15,0 5,5 Est 5,5 1013,4 60 - -
09:55 23,3 15,1   calma 6,4 1013,4 60 - -
10:00 23,4 15,2 5,5 Est 7,9 1013,4 60 - -
10:05 23,5 15,3 6,4 West 6,9 1013,4 60 - -
10:10 23,6 15,4   calma 5,0 1014,4 60 - -
10:15 23,6 14,9 6,1 Est 6,1 1014,4 58 - -
10:20 23,7 15,2   calma   1014,4 59 - -
10:25 23,9 15,4   calma   1013,4 59 - -
10:30 24,0 15,2   calma 3,2 1013,4 58 - -
10:35 24,1 15,3 1,4 Est 5,0 1013,4 58 - -
10:40 24,3 15,2   calma 5,0 1013,4 57 - -
10:45 24,4 15,3 4,0 ENE 4,0 1013,4 57 - -
10:50 24,6 15,2   calma 2,6 1013,4 56 - -
10:55 24,8 15,4 2,1 Est 2,1 1013,4 56 - -
11:00 24,9 14,4 2,1 Est 2,1 1013,4 52 - -
11:05 25,1 14,6   calma 3,5 1013,4 52 - -
11:10 25,3 14,7   calma   1013,4 52 - -
11:15 25,5 14,6   calma 1,4 1013,4 51 - -
11:20 25,6 15,0 4,7 Est 4,7 1013,4 52 - -
11:25 25,6 14,7 4,3 ENE 6,9 1012,4 51 - -
11:30 25,8 14,3   calma 6,9 1012,4 49 - -
11:35 26,1 14,9   calma   1012,4 50 - -
11:40 26,2 14,6 5,8 SE 5,8 1012,4 49 - -
11:46 26,3 14,7 4,3 Est 5,0 1012,4 49 - -
11:51 26,4 14,8   calma   1012,4 49 - -
11:56 26,4 14,5   calma 6,4 1013,4 48 - -
12:01 26,6 15,0 5,8 Est 5,8 1013,4 49 - -
12:06 26,8 15,2   calma   1013,4 49 - -
12:11 26,9 15,3   calma   1014,4 49 - -
12:16 27,1 15,5   calma   1014,4 49 - -
12:21 27,3 15,3 2,1 Est 3,2 1014,4 48 - -
12:26 27,3 15,3 5,5 Est -1607,4 1013,4 48 - -
12:31 27,3 15,3   calma   1013,4 48 - -
12:36 27,3 15,0   calma   1013,4 47 - -
12:41 27,2 14,9 1,4 Est 1,4 1014,4 47 - -
12:46 27,4 15,1   calma   1014,4 47 - -
12:51 27,5 15,2   calma   1014,4 47 - -
12:56 27,5 15,2 2,1 Est 2,1 1013,4 47 - -
13:01 27,6 14,9   calma   1013,4 46 - -
13:06 27,6 14,9   calma 2,1 1013,4 46 - -
13:11 27,6 14,9   calma 6,9 1013,4 46 - -
13:16 27,7 15,0 2,6 Est 2,6 1013,4 46 - -
13:21 27,7 15,0   calma 3,2 1013,4 46 - -
13:26 27,7 15,0 2,1 Est 2,1 1013,4 46 - -
13:31 27,7 15,0   calma   1013,4 46 - -
13:36 28,0 15,3 4,7 Est 4,7 1013,4 46 - -
13:41 28,1 15,0 2,6 Est 2,6 1014,4 45 - -
13:46 28,1 15,0 3,2 Est 3,2 1014,4 45 - -
13:51 28,2 15,1 3,2 Est 5,5 1014,4 45 - -
13:56 28,3 15,2 4,7 Est 4,7 1014,4 45 - -
14:01 28,3 15,2 1,8 West 4,0 1014,4 45 - -
14:06 28,4 15,3 4,0 Est 4,0 1014,4 45 - -
14:11 28,4 15,0 1,4 Est 2,1 1013,4 44 - -
14:16 28,5 15,1 1,4 NE 1,4 1013,4 44 - -
14:21 28,6 15,2   calma 4,7 1013,4 44 - -
14:26 28,6 15,2 2,6 Est 4,0 1013,4 44 - -
14:31 28,4 15,0 2,6 Est 5,0 1013,4 44 - -
14:36 28,4 14,6 4,3 Est 4,3 1013,4 43 - -
14:41 28,5 15,1   calma   1013,4 44 - -
14:46 28,7 15,2 6,1 Est 6,1 1013,4 44 - -
14:51 28,9 15,4 5,0 Est 5,0 1013,4 44 - -
14:56 29,0 15,2 1,4 Est 1,4 1013,4 43 - -
15:01 29,0 14,8   calma 5,0 1013,4 42 - -
15:06 29,0 14,8 6,9 Est 6,9 1013,4 42 - -
15:11 28,9 15,1 2,1 Est 6,1 1013,4 43 - -
15:16 29,2 15,0   calma 1,8 1013,4 42 - -
15:21 29,4 15,1 1,4 Est 6,1 1013,4 42 - -
15:26 29,2 15,3 2,1 Est 6,9 1013,4 43 - -
15:31 29,5 15,6 1,4 Est 4,0 1013,4 43 - -
15:36 29,7 15,8 1,4 Est 2,6 1013,4 43 - -
15:41 29,8 16,2 6,9 Est 6,9 1013,4 44 - -
15:46 29,8 16,2 6,9 Est 6,9 1013,4 44 - -
15:51 29,9 16,7 6,9 Est 6,9 1013,4 45 - -
15:56 30,2 16,6 6,9 Est -1607,4 1013,4 44 - -
16:01 30,3 16,7 5,5 Est 5,5 1013,4 44 - -
16:06 30,2 16,6   calma 2,1 1013,4 44 - -
16:11 30,4 16,8 3,5 Est 3,5 1013,4 44 - -
16:16 30,6 17,0   calma 4,3 1013,4 44 - -
16:21 30,7 17,0 1,4 Est 3,5 1013,4 44 - -
16:26 30,6 16,6 1,8 SSE 6,4 1013,4 43 - -
16:31 30,7 16,7 1,4 Est 4,3 1013,4 43 - -
16:36 30,9 16,9 3,5 Est 6,9 1012,4 43 - -
16:41 31,1 16,7 1,8 Est 6,1 1012,4 42 - -
16:46 30,9 16,5 1,4 West 4,7 1012,4 42 - -
16:51 31,2 16,8 2,6 Est 4,3 1012,4 42 - -
16:56 31,5 17,0 2,1 Est 3,5 1012,4 42 - -
17:01 31,8 17,3   calma 5,5 1012,4 42 - -
17:06 31,9 17,4 4,0 Est 4,0 1012,4 42 - -
17:11 31,8 16,9 3,2 Est -1607,4 1012,4 41 - -
17:16 31,7 16,8 4,7 Est -1607,4 1012,4 41 - -
17:21 31,6 16,7 4,7 Est 4,7 1012,4 41 - -
17:26 31,7 16,4 4,7 Est 4,7 1012,4 40 - -
17:31 31,7 16,4   calma   1012,4 40 - -
17:36 31,5 16,3 6,1 Est 6,1 1012,4 40 - -
17:41 31,4 16,2 3,5 Est 5,5 1012,4 40 - -
17:46 31,1 15,9 2,6 Est 2,6 1012,4 40 - -
17:51 30,6 15,8   calma 6,4 1012,4 41 - -
17:56 30,5 15,8 4,0 Est 4,7 1012,4 41 - -
18:01 30,4 16,0   calma 5,0 1012,4 42 - -
18:06 30,0 15,7   calma 5,8 1012,4 42 - -
18:11 29,8 15,5 5,5 SE 5,5 1012,4 42 - -
18:16 29,9 16,0 5,5 Est 5,5 1012,4 43 - -
18:21 29,9 16,0 4,7 SSW -1607,4 1011,4 43 - -
18:26 29,8 15,9 11,6 Est 11,6 1011,4 43 - -
18:31 29,6 15,7 1,4 Est 1,4 1011,4 43 - -
18:36 29,4 15,9 1,4 Est -1607,4 1012,4 44 - -
18:41 29,2 15,7 1,4 Est 1,4 1012,4 44 - -
18:46 29,0 15,5 1,4 Est 1,4 1012,4 44 - -
18:51 29,3 15,8   calma   1012,4 44 - -
18:56 29,6 16,1   calma 4,7 1012,4 44 - -
19:01 29,6 16,1 2,6 SE 6,4 1012,4 44 - -
19:06 29,4 15,9 3,2 ESE 6,4 1012,4 44 - -
19:11 29,4 16,2 5,0 Est 5,0 1012,4 45 - -
19:16 29,7 16,5 5,0 Est 5,0 1012,4 45 - -
19:21 30,0 16,4 4,3 Est 4,3 1012,4 44 - -
19:26 29,9 16,3 2,6 Est 5,5 1012,4 44 - -
19:31 29,8 15,9 1,4 Est 6,9 1012,4 43 - -
19:36 29,1 14,5 6,4 Est 9,0 1012,4 41 - -
19:41 28,5 14,3 5,8 Est 5,8 1012,4 42 - -
19:46 28,5 14,0 9,3 SW 9,3 1012,4 41 - -
19:51 28,4 13,5 6,4 Est 6,4 1012,4 40 - -
19:56 28,7 14,1 6,4 Est 6,4 1012,4 41 - -
20:01 29,1 14,1 1,8 SSW 1,8 1012,4 40 - -
20:06 29,3 14,3   calma 2,6 1013,4 40 - -
20:11 29,1 14,1 4,3 Est 4,3 1013,4 40 - -
20:16 28,8 14,2 4,3 Est 4,3 1013,4 41 - -
20:21 28,1 14,0   calma   1013,4 42 - -
20:26 27,6 13,9   calma   1013,4 43 - -
20:31 27,4 13,7 3,5 Est 3,5 1013,4 43 - -
20:36 27,2 13,9   calma   1013,4 44 - -
20:41 26,9 14,0   calma   1013,4 45 - -
20:46 26,6 13,7   calma 6,1 1013,4 45 - -
20:51 26,4 13,8   calma 1,8 1012,4 46 - -
20:56 26,2 14,0   calma   1012,4 47 - -
21:01 26,2 14,3 1,8 Est 4,0 1012,4 48 - -
21:06 26,0 14,8 6,1 Est 6,9 1013,4 50 - -
21:11 25,7 14,5 2,6 Est 2,6 1013,4 50 - -
Diari Resum Dijous 18 Juliol 2019
Temps Temp. ( °C ) Dew pt. ( °C ) Vent ( km/h ) des Rafegues ( km/h ) Pression baro ( hPa ) Humid.( % ) Rainrate ( cm ) Solar ( W/m2 )
Maxima31,9 17,9 16,6 Est ( 631/938 ) 17,2 1014,4 76 0,50 0
Media24,3 14,4 3,7 Est #133/255 -57,1 1012,6 54 1,00 0 #0/255
Minima-17,8 -17,8 -   -1607,4 1010,4 0 -  
Diari Tabular details for Dijous 18 Juliol 2019
Temps Temp. ( °C ) Dew pt. ( °C ) Vent ( km/h ) des Rafegues ( km/h ) Pression baro ( hPa ) Humid.( % ) Rainrate ( cm ) Solar ( W/m2 )
00:00 20,2 15,4 9,0 Est 9,0 1013,4 74 - -
00:05 20,2 15,2 8,7 Est 8,7 1013,4 73 - -
00:10 20,3 15,1 8,7 Est 8,7 1013,4 72 - -
00:15 20,5 15,1 11,6 NNW 17,2 1013,4 71 - -
00:20 20,6 15,2 3,2 West 4,3 1013,4 71 - -
00:25 20,6 14,9 9,7 West 9,7 1012,4 70 - -
00:30 20,7 14,8 13,0 Est 14,8 1012,4 69 - -
00:35 20,7 14,8 6,1 Est 13,0 1012,4 69 - -
00:40 20,8 14,9 5,0 Est 8,7 1013,4 69 - -
00:45 20,9 14,8 4,3 West 9,0 1013,4 68 - -
00:50 20,9 14,5   calma 9,3 1013,4 67 - -
00:55 21,0 14,6 4,7 Est 10,5 1013,4 67 - -
01:00 21,0 14,4 1,8 Est 7,6 1013,4 66 - -
01:05 21,0 14,4 7,9 Est 10,8 1013,4 66 - -
01:10 21,1 14,3 6,1 SSE 9,3 1013,4 65 - -
01:15 21,1 14,3 3,5 Est 9,0 1013,4 65 - -
01:20 21,2 14,4 10,1 WNW 10,1 1013,4 65 - -
01:25 21,2 14,1 5,0 West 8,7 1013,4 64 - -
01:30 21,3 14,2 3,2 Est 12,2 1013,4 64 - -
01:35 21,3 14,2 15,8 Est 15,8 1013,4 64 - -
01:40 21,2 14,1 1,4 Est 6,9 1013,4 64 - -
01:45 21,2 14,1 5,0 Est 8,7 1013,4 64 - -
01:50 21,2 14,1 12,2 Est 12,2 1013,4 64 - -
01:55 21,1 14,3 5,8 WNW 10,5 1012,4 65 - -
02:00 21,0 14,2 6,9 West 6,9 1012,4 65 - -
02:05 21,0 14,2 3,5 NW 5,8 1012,4 65 - -
02:10 21,0 14,4 4,7 Est 7,6 1012,4 66 - -
02:15 21,1 14,3 6,1 Est 12,6 1012,4 65 - -
02:20 21,1 14,3 3,2 Est 5,5 1012,4 65 - -
02:25 21,2 14,4   calma 5,0 1012,4 65 - -
02:30 21,3 14,5 2,6 West 10,5 1012,4 65 - -
02:35 21,4 14,5 5,5 Est 5,5 1012,4 65 - -
02:40 21,5 14,6 2,1 Est 8,7 1011,4 65 - -
02:45 21,5 14,6   calma 5,5 1011,4 65 - -
02:50 21,6 14,7 3,2 WNW 3,2 1011,4 65 - -
02:55 21,6 14,7   calma 4,0 1011,4 65 - -
03:00 21,6 14,7 1,8 Est 6,1 1011,4 65 - -
03:05 21,6 14,7 3,2 NE 5,0 1011,4 65 - -
03:10 21,5 14,6   calma 5,0 1011,4 65 - -
03:15 21,5 14,6 2,1 West 3,5 1011,4 65 - -
03:20 21,5 14,9   calma 4,3 1011,4 66 - -
03:25 21,4 14,5 7,9 NW 10,5 1011,4 65 - -
03:30 21,4 14,5 5,0 Est 9,0 1011,4 65 - -
03:35 21,4 14,5   calma 5,5 1011,4 65 - -
03:40 21,4 14,8   calma 2,1 1010,4 66 - -
03:45 21,5 14,4 2,1 West 4,3 1010,4 64 - -
03:50 21,6 14,5   calma 4,0 1010,4 64 - -
03:55 21,5 14,6 5,8 Est 6,1 1011,4 65 - -
04:00 21,5 14,4 2,1 Est 6,1 1011,4 64 - -
04:05 21,5 14,4 4,0 Est 4,7 1011,4 64 - -
04:10 21,5 14,4   calma 5,8 1011,4 64 - -
04:15 21,5 14,4 6,9 Est 6,9 1011,4 64 - -
04:20 21,5 14,4   calma 1,8 1011,4 64 - -
04:25 21,6 14,7 3,2 NNW 7,6 1011,4 65 - -
04:30 21,7 14,3   calma 6,1 1011,4 63 - -
04:35 21,6 14,3 5,5 ESE 6,4 1011,4 63 - -
04:40 21,6 14,0 6,1 Est 6,1 1011,4 62 - -
04:45 21,6 14,0 1,4 West 5,0 1011,4 62 - -
04:50 21,7 14,3 6,1 Est 7,9 1011,4 63 - -
04:55 21,8 14,4 4,7 Est 4,7 1011,4 63 - -
05:00 21,8 14,4 4,0 Est 11,9 1011,4 63 - -
05:05 21,7 14,6 4,0 Est 5,8 1011,4 64 - -
05:10 21,8 14,7   calma 5,8 1011,4 64 - -
05:15 21,8 14,9 4,0 Est 4,0 1011,4 65 - -
05:20 21,8 14,9 2,1 Est 7,2 1011,4 65 - -
05:25 21,8 14,9 6,9 West 6,9 1011,4 65 - -
05:30 21,7 15,1 1,8 West 9,0 1011,4 66 - -
05:35 21,7 15,1 2,6 ENE 4,0 1011,4 66 - -
05:40 21,9 15,7 2,6 West 8,7 1011,4 68 - -
05:45 22,1 15,7 4,7 WNW 9,0 1011,4 67 - -
05:50 22,3 15,9 4,7 West 14,0 1011,4 67 - -
05:55 22,4 16,0 3,5 WNW 10,1 1011,4 67 - -
06:00 22,5 16,3 9,3 Est 9,3 1011,4 68 - -
06:05 22,5 16,3 11,9 Est 11,9 1011,4 68 - -
06:10 22,5 16,3 3,2 West 9,0 1011,4 68 - -
06:15 -17,8 -17,8 5,5 Est 13,7 1011,4 0 - -
06:20 -17,8 -17,8 1,8 Est 10,1 1011,4 0 - -
06:25 -17,8 -17,8 9,0 Est 14,0 1011,4 0 0,50 -
06:30 -17,8 -17,8 4,3 Est -1607,4 1011,4 0 0,50 -
06:35 -17,8 -17,8 4,3 Est -1607,4 1011,4 0 0,50 -
06:40 22,3 17,9 4,3 Est 4,3 1011,4 76 0,50 -
06:45 22,0 16,3 4,3 Est -1607,4 1011,4 70 0,50 -
06:50 21,6 15,4 7,6 North 7,6 1011,4 68 0,50 -
06:55 21,2 14,8 9,7 WNW 9,7 1011,4 67 0,50 -
07:00 20,9 14,8 7,9 Est 16,9 1011,4 68 0,50 -
07:05 20,9 15,0 3,2 Est 15,4 1011,4 69 0,50 -
07:10 20,9 15,4 9,3 ENE 16,6 1011,4 71 0,50 -
07:15 21,0 15,5 6,9 WSW 12,6 1011,4 71 0,50 -
07:20 21,0 15,5 6,4 Est 8,7 1011,4 71 0,50 -
07:25 21,0 15,5 16,6 Est 16,6 1011,4 71 - -
07:30 21,1 15,6 7,9 Est 10,8 1011,4 71 - -
07:35 21,2 15,5 9,3 West 10,1 1011,4 70 - -
07:40 21,3 15,2 1,8 Est 7,6 1012,4 68 - -
07:45 21,4 14,8 4,3 NNW 9,3 1012,4 66 - -
07:50 21,4 14,3 6,1 Est 11,9 1012,4 64 - -
07:55 21,5 14,4 6,1 WNW 8,7 1012,4 64 - -
08:00 21,6 14,3 6,4 Est 11,6 1012,4 63 - -
08:05 21,6 14,3 4,7 WNW 10,5 1012,4 63 - -
08:10 21,7 14,3 4,3 Est 10,5 1012,4 63 - -
08:15 21,7 14,3 10,8 Est 12,6 1012,4 63 - -
08:20 21,7 14,1 3,2 NNE 9,3 1012,4 62 - -
08:25 21,7 14,1 2,1 ENE 12,6 1012,4 62 - -
08:30 21,7 14,1 6,4 Est 12,6 1012,4 62 - -
08:35 21,8 14,2 12,6 WNW 15,8 1012,4 62 - -
08:40 21,9 14,3 4,7 NNE 12,2 1012,4 62 - -
08:45 21,9 14,0   calma 4,7 1012,4 61 - -
08:50 22,0 14,1 3,5 North 3,5 1012,4 61 - -
08:55 22,2 14,3 4,0 Est -1607,4 1012,4 61 - -
09:00 22,4 14,3 4,7 NW 4,7 1012,4 60 - -
09:05 22,5 14,3 9,0 WNW 9,0 1012,4 60 - -
09:10 22,5 14,3 6,1 NW 9,0 1012,4 60 - -
09:15 22,6 14,4 8,7 Est 11,1 1012,4 60 - -
09:20 22,7 14,5 8,7 NE 12,6 1012,4 60 - -
09:25 22,8 14,6 7,9 Est 16,3 1013,4 60 - -
09:30 22,9 14,7 5,5 West 9,3 1013,4 60 - -
09:35 23,1 14,9 5,8 West 6,1 1013,4 60 - -
09:40 23,1 14,9 4,0 Est 4,0 1013,4 60 - -
09:45 23,2 15,0 1,8 West 10,5 1013,4 60 - -
09:50 23,2 15,0 5,5 Est 5,5 1013,4 60 - -
09:55 23,3 15,1   calma 6,4 1013,4 60 - -
10:00 23,4 15,2 5,5 Est 7,9 1013,4 60 - -
10:05 23,5 15,3 6,4 West 6,9 1013,4 60 - -
10:10 23,6 15,4   calma 5,0 1014,4 60 - -
10:15 23,6 14,9 6,1 Est 6,1 1014,4 58 - -
10:20 23,7 15,2   calma   1014,4 59 - -
10:25 23,9 15,4   calma   1013,4 59 - -
10:30 24,0 15,2   calma 3,2 1013,4 58 - -
10:35 24,1 15,3 1,4 Est 5,0 1013,4 58 - -
10:40 24,3 15,2   calma 5,0 1013,4 57 - -
10:45 24,4 15,3 4,0 ENE 4,0 1013,4 57 - -
10:50 24,6 15,2   calma 2,6 1013,4 56 - -
10:55 24,8 15,4 2,1 Est 2,1 1013,4 56 - -
11:00 24,9 14,4 2,1 Est 2,1 1013,4 52 - -
11:05 25,1 14,6   calma 3,5 1013,4 52 - -
11:10 25,3 14,7   calma   1013,4 52 - -
11:15 25,5 14,6   calma 1,4 1013,4 51 - -
11:20 25,6 15,0 4,7 Est 4,7 1013,4 52 - -
11:25 25,6 14,7 4,3 ENE 6,9 1012,4 51 - -
11:30 25,8 14,3   calma 6,9 1012,4 49 - -
11:35 26,1 14,9   calma   1012,4 50 - -
11:40 26,2 14,6 5,8 SE 5,8 1012,4 49 - -
11:46 26,3 14,7 4,3 Est 5,0 1012,4 49 - -
11:51 26,4 14,8   calma   1012,4 49 - -
11:56 26,4 14,5   calma 6,4 1013,4 48 - -
12:01 26,6 15,0 5,8 Est 5,8 1013,4 49 - -
12:06 26,8 15,2   calma   1013,4 49 - -
12:11 26,9 15,3   calma   1014,4 49 - -
12:16 27,1 15,5   calma   1014,4 49 - -
12:21 27,3 15,3 2,1 Est 3,2 1014,4 48 - -
12:26 27,3 15,3 5,5 Est -1607,4 1013,4 48 - -
12:31 27,3 15,3   calma   1013,4 48 - -
12:36 27,3 15,0   calma   1013,4 47 - -
12:41 27,2 14,9 1,4 Est 1,4 1014,4 47 - -
12:46 27,4 15,1   calma   1014,4 47 - -
12:51 27,5 15,2   calma   1014,4 47 - -
12:56 27,5 15,2 2,1 Est 2,1 1013,4 47 - -
13:01 27,6 14,9   calma   1013,4 46 - -
13:06 27,6 14,9   calma 2,1 1013,4 46 - -
13:11 27,6 14,9   calma 6,9 1013,4 46 - -
13:16 27,7 15,0 2,6 Est 2,6 1013,4 46 - -
13:21 27,7 15,0   calma 3,2 1013,4 46 - -
13:26 27,7 15,0 2,1 Est 2,1 1013,4 46 - -
13:31 27,7 15,0   calma   1013,4 46 - -
13:36 28,0 15,3 4,7 Est 4,7 1013,4 46 - -
13:41 28,1 15,0 2,6 Est 2,6 1014,4 45 - -
13:46 28,1 15,0 3,2 Est 3,2 1014,4 45 - -
13:51 28,2 15,1 3,2 Est 5,5 1014,4 45 - -
13:56 28,3 15,2 4,7 Est 4,7 1014,4 45 - -
14:01 28,3 15,2 1,8 West 4,0 1014,4 45 - -
14:06 28,4 15,3 4,0 Est 4,0 1014,4 45 - -
14:11 28,4 15,0 1,4 Est 2,1 1013,4 44 - -
14:16 28,5 15,1 1,4 NE 1,4 1013,4 44 - -
14:21 28,6 15,2   calma 4,7 1013,4 44 - -
14:26 28,6 15,2 2,6 Est 4,0 1013,4 44 - -
14:31 28,4 15,0 2,6 Est 5,0 1013,4 44 - -
14:36 28,4 14,6 4,3 Est 4,3 1013,4 43 - -
14:41 28,5 15,1   calma   1013,4 44 - -
14:46 28,7 15,2 6,1 Est 6,1 1013,4 44 - -
14:51 28,9 15,4 5,0 Est 5,0 1013,4 44 - -
14:56 29,0 15,2 1,4 Est 1,4 1013,4 43 - -
15:01 29,0 14,8   calma 5,0 1013,4 42 - -
15:06 29,0 14,8 6,9 Est 6,9 1013,4 42 - -
15:11 28,9 15,1 2,1 Est 6,1 1013,4 43 - -
15:16 29,2 15,0   calma 1,8 1013,4 42 - -
15:21 29,4 15,1 1,4 Est 6,1 1013,4 42 - -
15:26 29,2 15,3 2,1 Est 6,9 1013,4 43 - -
15:31 29,5 15,6 1,4 Est 4,0 1013,4 43 - -
15:36 29,7 15,8 1,4 Est 2,6 1013,4 43 - -
15:41 29,8 16,2 6,9 Est 6,9 1013,4 44 - -
15:46 29,8 16,2 6,9 Est 6,9 1013,4 44 - -
15:51 29,9 16,7 6,9 Est 6,9 1013,4 45 - -
15:56 30,2 16,6 6,9 Est -1607,4 1013,4 44 - -
16:01 30,3 16,7 5,5 Est 5,5 1013,4 44 - -
16:06 30,2 16,6   calma 2,1 1013,4 44 - -
16:11 30,4 16,8 3,5 Est 3,5 1013,4 44 - -
16:16 30,6 17,0   calma 4,3 1013,4 44 - -
16:21 30,7 17,0 1,4 Est 3,5 1013,4 44 - -
16:26 30,6 16,6 1,8 SSE 6,4 1013,4 43 - -
16:31 30,7 16,7 1,4 Est 4,3 1013,4 43 - -
16:36 30,9 16,9 3,5 Est 6,9 1012,4 43 - -
16:41 31,1 16,7 1,8 Est 6,1 1012,4 42 - -
16:46 30,9 16,5 1,4 West 4,7 1012,4 42 - -
16:51 31,2 16,8 2,6 Est 4,3 1012,4 42 - -
16:56 31,5 17,0 2,1 Est 3,5 1012,4 42 - -
17:01 31,8 17,3   calma 5,5 1012,4 42 - -
17:06 31,9 17,4 4,0 Est 4,0 1012,4 42 - -
17:11 31,8 16,9 3,2 Est -1607,4 1012,4 41 - -
17:16 31,7 16,8 4,7 Est -1607,4 1012,4 41 - -
17:21 31,6 16,7 4,7 Est 4,7 1012,4 41 - -
17:26 31,7 16,4 4,7 Est 4,7 1012,4 40 - -
17:31 31,7 16,4   calma   1012,4 40 - -
17:36 31,5 16,3 6,1 Est 6,1 1012,4 40 - -
17:41 31,4 16,2 3,5 Est 5,5 1012,4 40 - -
17:46 31,1 15,9 2,6 Est 2,6 1012,4 40 - -
17:51 30,6 15,8   calma 6,4 1012,4 41 - -
17:56 30,5 15,8 4,0 Est 4,7 1012,4 41 - -
18:01 30,4 16,0   calma 5,0 1012,4 42 - -
18:06 30,0 15,7   calma 5,8 1012,4 42 - -
18:11 29,8 15,5 5,5 SE 5,5 1012,4 42 - -
18:16 29,9 16,0 5,5 Est 5,5 1012,4 43 - -
18:21 29,9 16,0 4,7 SSW -1607,4 1011,4 43 - -
18:26 29,8 15,9 11,6 Est 11,6 1011,4 43 - -
18:31 29,6 15,7 1,4 Est 1,4 1011,4 43 - -
18:36 29,4 15,9 1,4 Est -1607,4 1012,4 44 - -
18:41 29,2 15,7 1,4 Est 1,4 1012,4 44 - -
18:46 29,0 15,5 1,4 Est 1,4 1012,4 44 - -
18:51 29,3 15,8   calma   1012,4 44 - -
18:56 29,6 16,1   calma 4,7 1012,4 44 - -
19:01 29,6 16,1 2,6 SE 6,4 1012,4 44 - -
19:06 29,4 15,9 3,2 ESE 6,4 1012,4 44 - -
19:11 29,4 16,2 5,0 Est 5,0 1012,4 45 - -
19:16 29,7 16,5 5,0 Est 5,0 1012,4 45 - -
19:21 30,0 16,4 4,3 Est 4,3 1012,4 44 - -
19:26 29,9 16,3 2,6 Est 5,5 1012,4 44 - -
19:31 29,8 15,9 1,4 Est 6,9 1012,4 43 - -
19:36 29,1 14,5 6,4 Est 9,0 1012,4 41 - -
19:41 28,5 14,3 5,8 Est 5,8 1012,4 42 - -
19:46 28,5 14,0 9,3 SW 9,3 1012,4 41 - -
19:51 28,4 13,5 6,4 Est 6,4 1012,4 40 - -
19:56 28,7 14,1 6,4 Est 6,4 1012,4 41 - -
20:01 29,1 14,1 1,8 SSW 1,8 1012,4 40 - -
20:06 29,3 14,3   calma 2,6 1013,4 40 - -
20:11 29,1 14,1 4,3 Est 4,3 1013,4 40 - -
20:16 28,8 14,2 4,3 Est 4,3 1013,4 41 - -
20:21 28,1 14,0   calma   1013,4 42 - -
20:26 27,6 13,9   calma   1013,4 43 - -
20:31 27,4 13,7 3,5 Est 3,5 1013,4 43 - -
20:36 27,2 13,9   calma   1013,4 44 - -
20:41 26,9 14,0   calma   1013,4 45 - -
20:46 26,6 13,7   calma 6,1 1013,4 45 - -
20:51 26,4 13,8   calma 1,8 1012,4 46 - -
20:56 26,2 14,0   calma   1012,4 47 - -
21:01 26,2 14,3 1,8 Est 4,0 1012,4 48 - -
21:06 26,0 14,8 6,1 Est 6,9 1013,4 50 - -
21:11 25,7 14,5 2,6 Est 2,6 1013,4 50 - -

Download your copy of this data-set  here

Our weather-data as stored at Weather Underground. Guio original per Jim McMurry. Adaptat per a la plantilla per Leuven-Template.eu

Trobareu la nostra informacio del temps tambe a:

European Weather Network

WeatherCloud

Weather Underground

Meteoclimatic

Equip utilitzat:

Weather-program
Weather Display

Weather-server
RaspberryPI 2

Proveidor

Weather Display

RaspberryPI 2